User: anonymous   Login
Location: Vancouver
(49.2500°N, 123.1330°W)
Time: 07:03:45
(UTC-08:00)
Language:

JAS-1B - Orbit

View from above orbital plane
View from above orbital plane
View from above satellite
View from above satellite

Ground track
Ground track

The orbit data is extracted from the following two-line orbital elements,

1 20480U 90013C   16041.58000321  .00000006  00000-0  79033-4 0  9990
2 20480  99.0354 262.0178 0540938  67.5930 347.0415 12.83409388218530
Epoch (UTC): 10 February 2016 13:55:12
Eccentricity: 0.0540938
inclination: 99.0354°
perigee height: 911 km
apogee height: 1744 km
right ascension of ascending node: 262.0178°
argument of perigee: 67.5930°
revolutions per day: 12.83409388
mean anomaly at epoch: 347.0415°
orbit number at epoch: 21853

The dashed part of the orbit path shows where the satellite is in the earth's shadow,  

DLR